Weather History for KT82 - May, 2013

Change the Weather History Date:

Friday, May 3, 2013

  Actual Average (KSAT) Record (KSAT)
Temperature  
Mean Temperature 52 °F 74 °F  
Max Temperature 64 °F 84 °F 98 °F (1984)
Min Temperature 39 °F 63 °F 45 °F (2013)
Degree Days  
Heating Degree Days 14 0  
Month to date heating degree days 0  
Since 1 July heating degree days 1494  
Cooling Degree Days 0 9  
Month to date cooling degree days 26  
Year to date cooling degree days 285  
Growing Degree Days 2 (Base 50)    
Moisture  
Dew Point 30 °F    
Average Humidity 49    
Maximum Humidity 83    
Minimum Humidity 22    
Precipitation  
Precipitation 0.00 in 0.11 in 2.63 in (1991)
Month to date precipitation 0.32  
Year to date precipitation 8.28  
Snow  
Snow 0.00 in - - ()
Month to date snowfall  
Since 1 July snowfall  
Snow Depth -    
Sea Level Pressure  
Sea Level Pressure 30.25 in    
Wind  
Wind Speed 11 mph (NNW)    
Max Wind Speed 21 mph    
Max Gust Speed 28 mph    
Visibility 10 miles    
Events      
T = Trace of Precipitation, MM = Missing Value Source: NWS Daily Summary

Daily Weather History Graph

Daily Weather History Graph

Search for Another Location

Airport or City:

Trip Planner

Search our weather history database for the weather conditions in past years. The results will help you decide how hot, cold, wet, or windy it might be!

Date:

Astronomy

May. 03, 2013 Rise Set
Actual Time 6:50 AM CDT 8:14 PM CDT
Civil Twilight 6:24 AM CDT 8:40 PM CDT
Nautical Twilight 5:54 AM CDT 9:11 PM CDT
Astronomical Twilight 5:22 AM CDT 9:42 PM CDT
Moon 2:49 AM CDT (5/3) 2:36 PM CDT (5/3)
Length of Visible Light 14h 15m
Length of Day
13h 24m
Last Quarter, 37% of the Moon is Illuminated
May 3
Last Quarter
May 9
New
May 17
First Quarter
May 24
Full
May 31
Last Quarter

Hourly Weather History & Observations

Time (CDT) Temp. Windchill Dew Point Humidity Pressure Visibility Wind Dir Wind Speed Gust Speed Precip Events Conditions
12:15 AM 44.6 °F 38.1 °F 33.8 °F 66% 30.37 in 10.0 mi North 13.8 mph 23.0 mph N/A   Clear
12:35 AM 44.6 °F 38.8 °F 33.4 °F 65% 30.37 in 10.0 mi North 11.5 mph 18.4 mph N/A   Clear
12:55 AM 44.2 °F 38.0 °F 33.6 °F 66% 30.37 in 10.0 mi NNW 12.7 mph 16.1 mph N/A   Clear
1:15 AM 44.1 °F 39.0 °F 33.4 °F 66% 30.37 in 10.0 mi North 9.2 mph - N/A   Clear
1:35 AM 44.1 °F 38.1 °F 33.1 °F 65% 30.36 in 10.0 mi North 11.5 mph 18.4 mph N/A   Clear
1:55 AM 43.5 °F 38.9 °F 33.1 °F 67% 30.36 in 10.0 mi North 8.1 mph - N/A   Clear
2:15 AM 43.5 °F 38.3 °F 32.9 °F 66% 30.35 in 10.0 mi North 9.2 mph 17.3 mph N/A   Clear
2:35 AM 43.3 °F 35.8 °F 32.9 °F 67% 30.34 in 10.0 mi NNW 16.1 mph 21.9 mph N/A   Clear
2:55 AM 42.6 °F 36.3 °F 32.9 °F 68% 30.34 in 10.0 mi NNW 11.5 mph 19.6 mph N/A   Clear
3:15 AM 42.3 °F 35.9 °F 32.4 °F 68% 30.34 in 10.0 mi NNW 11.5 mph - N/A   Clear
3:35 AM 41.4 °F 35.2 °F 32.2 °F 70% 30.34 in 10.0 mi NNW 10.4 mph - N/A   Clear
3:55 AM 41.9 °F 37.5 °F 31.8 °F 67% 30.34 in 10.0 mi NNW 6.9 mph - N/A   Clear
4:15 AM 41.7 °F 36.1 °F 31.3 °F 66% 30.33 in 10.0 mi NNW 9.2 mph - N/A   Clear
4:35 AM 41.2 °F 36.0 °F 31.1 °F 67% 30.33 in 10.0 mi NNW 8.1 mph - N/A   Clear
4:55 AM 39.9 °F 34.5 °F 32.0 °F 73% 30.33 in 10.0 mi NNW 8.1 mph - N/A   Clear
5:15 AM 40.3 °F 34.4 °F 31.3 °F 70% 30.33 in 10.0 mi NNW 9.2 mph - N/A   Clear
5:35 AM 40.8 °F 34.1 °F 30.2 °F 66% 30.33 in 10.0 mi NNW 11.5 mph - N/A   Clear
5:55 AM 40.1 °F 33.6 °F 30.6 °F 69% 30.33 in 10.0 mi NNW 10.4 mph - N/A   Clear
6:15 AM 40.1 °F 34.7 °F 30.2 °F 68% 30.33 in 10.0 mi NNW 8.1 mph - N/A   Clear
6:35 AM 40.1 °F 33.2 °F 30.2 °F 68% 30.33 in 10.0 mi NNW 11.5 mph - N/A   Clear
6:55 AM 39.7 °F 33.7 °F 30.2 °F 69% 30.33 in 10.0 mi NNW 9.2 mph - N/A   Clear
7:15 AM 40.1 °F 33.2 °F 30.2 °F 68% 30.34 in 10.0 mi NNW 11.5 mph - N/A   Clear
7:35 AM 40.8 °F 34.5 °F 30.4 °F 66% 30.34 in 10.0 mi NNW 10.4 mph - N/A   Clear
7:55 AM 41.7 °F 35.6 °F 30.9 °F 66% 30.35 in 10.0 mi NNW 10.4 mph - N/A   Clear
8:15 AM 43.2 °F 36.6 °F 30.7 °F 62% 30.36 in 10.0 mi NW 12.7 mph - N/A   Clear
8:35 AM 45.0 °F 39.7 °F 31.1 °F 58% 30.35 in 10.0 mi NNW 10.4 mph - N/A   Clear
8:55 AM 47.7 °F - 30.9 °F 52% 30.35 in 10.0 mi NNW 11.5 mph - N/A   Clear
9:15 AM 48.4 °F - 29.1 °F 47% 30.36 in 10.0 mi North 16.1 mph 25.3 mph N/A   Clear
9:35 AM 50.0 °F - 28.4 °F 43% 30.35 in 10.0 mi North 18.4 mph 26.5 mph N/A   Clear
9:55 AM 50.9 °F - 27.9 °F 41% 30.36 in 10.0 mi NNW 17.3 mph 24.2 mph N/A   Clear
10:15 AM 52.0 °F - 28.2 °F 40% 30.36 in 10.0 mi North 16.1 mph 25.3 mph N/A   Clear
10:35 AM 52.7 °F - 26.8 °F 37% 30.35 in 10.0 mi North 20.7 mph 27.6 mph N/A   Clear
10:55 AM 53.6 °F - 27.5 °F 37% 30.35 in 10.0 mi North 19.6 mph 26.5 mph N/A   Clear
11:15 AM 54.3 °F - 27.9 °F 36% 30.34 in 10.0 mi North 20.7 mph 25.3 mph N/A   Clear
11:35 AM 55.6 °F - 28.6 °F 36% 30.33 in 10.0 mi NNW 19.6 mph 25.3 mph N/A   Clear
11:55 AM 56.1 °F - 27.5 °F 33% 30.33 in 10.0 mi North 18.4 mph 27.6 mph N/A   Clear
12:15 PM 56.8 °F - 27.0 °F 32% 30.32 in 10.0 mi NNW 11.5 mph 26.5 mph N/A   Clear
12:35 PM 57.7 °F - 26.8 °F 31% 30.31 in 10.0 mi North 15.0 mph 21.9 mph N/A   Clear
12:55 PM 58.1 °F - 26.4 °F 30% 30.29 in 10.0 mi North 13.8 mph 21.9 mph N/A   Clear
1:15 PM 58.5 °F - 26.6 °F 30% 30.28 in 10.0 mi North 18.4 mph 21.9 mph N/A   Clear
1:35 PM 59.7 °F - 27.1 °F 29% 30.26 in 10.0 mi North 10.4 mph 24.2 mph N/A   Clear
1:55 PM 60.1 °F - 26.6 °F 28% 30.25 in 10.0 mi North 15.0 mph 23.0 mph N/A   Clear
2:15 PM 60.8 °F - 26.8 °F 27% 30.24 in 10.0 mi North 15.0 mph 20.7 mph N/A   Clear
2:35 PM 61.0 °F - 26.4 °F 27% 30.23 in 10.0 mi NW 15.0 mph 25.3 mph N/A   Clear
2:55 PM 61.3 °F - 27.5 °F 28% 30.22 in 10.0 mi NNW 9.2 mph 20.7 mph N/A   Clear
3:15 PM 61.7 °F - 25.2 °F 25% 30.20 in 10.0 mi NW 12.7 mph 19.6 mph N/A   Clear
3:35 PM 63.0 °F - 26.8 °F 25% 30.19 in 10.0 mi North 10.4 mph 18.4 mph N/A   Clear
3:55 PM 62.8 °F - 26.4 °F 25% 30.18 in 10.0 mi West 6.9 mph 23.0 mph N/A   Clear
4:15 PM 63.5 °F - 26.1 °F 24% 30.16 in 10.0 mi NNW 8.1 mph - N/A   Clear
4:35 PM 63.0 °F - 24.6 °F 23% 30.16 in 10.0 mi NNW 13.8 mph 18.4 mph N/A   Clear
4:55 PM 63.3 °F - 24.4 °F 23% 30.15 in 10.0 mi NNW 12.7 mph 19.6 mph N/A   Clear
5:15 PM 63.9 °F - 24.6 °F 23% 30.13 in 10.0 mi NNW 16.1 mph 20.7 mph N/A   Clear
5:35 PM 63.9 °F - 24.4 °F 22% 30.13 in 10.0 mi NW 11.5 mph 16.1 mph N/A   Clear
5:55 PM 64.0 °F - 25.3 °F 23% 30.11 in 10.0 mi NNW 11.5 mph 17.3 mph N/A   Clear
6:15 PM 63.3 °F - 25.0 °F 23% 30.11 in 10.0 mi North 4.6 mph - N/A   Clear
6:35 PM 63.3 °F - 26.1 °F 24% 30.11 in 10.0 mi NNW 9.2 mph - N/A   Clear
6:55 PM 62.6 °F - 25.5 °F 24% 30.10 in 10.0 mi NNW 8.1 mph - N/A   Clear
7:15 PM 62.6 °F - 26.1 °F 25% 30.10 in 10.0 mi NNW 6.9 mph - N/A   Clear
7:35 PM 61.5 °F - 27.0 °F 27% 30.10 in 10.0 mi NNE 5.8 mph - N/A   Clear
7:55 PM 59.5 °F - 27.3 °F 29% 30.10 in 10.0 mi North 6.9 mph - N/A   Clear
8:15 PM 57.9 °F - 28.4 °F 32% 30.10 in 10.0 mi NE 3.5 mph - N/A   Clear
8:35 PM 53.8 °F - 31.3 °F 42% 30.11 in 10.0 mi Calm Calm - N/A   Clear
8:55 PM 52.2 °F - 32.5 °F 47% 30.11 in 10.0 mi Calm Calm - N/A   Clear
9:15 PM 51.6 °F - 34.5 °F 52% 30.11 in 10.0 mi Calm Calm - N/A   Clear
9:35 PM 49.5 °F - 34.9 °F 57% 30.12 in 10.0 mi Calm Calm - N/A   Clear
9:55 PM 46.8 °F - 36.9 °F 68% 30.13 in 10.0 mi Calm Calm - N/A   Clear
10:15 PM 44.6 °F - 37.4 °F 76% 30.12 in 10.0 mi Calm Calm - N/A   Clear
10:35 PM 44.8 °F 43.3 °F 37.2 °F 75% 30.12 in 10.0 mi NW 3.5 mph - N/A   Clear
10:55 PM 43.7 °F 41.1 °F 36.9 °F 77% 30.11 in 10.0 mi NW 4.6 mph - N/A   Clear
11:15 PM 43.7 °F 42.1 °F 36.9 °F 77% 30.11 in 10.0 mi West 3.5 mph - N/A   Clear
11:35 PM 43.2 °F - 36.0 °F 76% 30.11 in 10.0 mi Calm Calm - N/A   Clear
11:55 PM 40.8 °F - 36.0 °F 83% 30.11 in 10.0 mi Calm Calm - N/A   Clear